Home > Weather > Dushanbe > Past weeks

Flag for Tajikistan Past Weather in Dushanbe, Tajikistan — Yesterday and Last 2 Weeks

Now
77 °F

Passing clouds.


Feels Like: 79 °F
Forecast: 71 / 93 °F
Wind: 1 mph from North

Location: Dushanbe Airport

Current Time: Jul 28, 2016 at 4:13:37 AM

Latest Report: Jul 28, 2016 at 3:30 AM


Visibility: 4 mi

Pressure: 29.71 "Hg (27.01 "Hg at 832m altitude)

Humidity: 57%

Dew Point: 61 °F

Location of DushanbeLocation

Past Weather in Dushanbe — Graph

°F

Dushanbe Temperature Yesterday

Maximum temperature yesterday: 106 °F (at 1:00 PM)
Minimum temperature yesterday: 72 °F (at 6:00 AM)
Average temperature yesterday: 89 °F

High & Low Weather Summary for the Past Weeks

 TemperatureHumidityPressure
High108 °F (Jul 26, 3:30 PM)65% (Jul 16, 3:00 AM)29.92 "Hg (Jul 16, 3:00 AM)
Low64 °F (Jul 20, 5:30 AM)10% (Jul 20, 1:30 PM)29.62 "Hg (Jul 26, 5:00 PM)
Average86 °F34%29.75 "Hg
* Reported Jul 13 3:00 AM — Jul 28 3:00 AM, Dushanbe, Weather by CustomWeather, © 2016

Note: Actual official high and low records may vary slightly from our data, if they occured in-between our weather recording intervals... More about our weather records

Advertising

Dushanbe Weather History for the Previous 24 Hours

Scroll right to see more
 ConditionsComfort  
Time TempWeatherWind HumidityBarometerVisibility
3:00 AM
Thu, Jul 28
79 °FPassing clouds.1 mph54%29.71 "Hg4 mi
2:30 AM81 °FPassing clouds.3 mph51%29.68 "Hg4 mi
2:00 AM82 °FPassing clouds.6 mph45%29.68 "Hg5 mi
1:30 AM81 °FPassing clouds.3 mph51%29.68 "Hg4 mi
1:00 AM81 °FPassing clouds.1 mph51%29.68 "Hg3 mi
12:30 AM81 °FPassing clouds.3 mph54%29.68 "Hg3 mi
12:00 AM81 °FPassing clouds.3 mph54%29.68 "Hg3 mi
11:30 PM
Wed, Jul 27
82 °FPassing clouds.1 mph48%29.68 "Hg3 mi
11:00 PM84 °FPassing clouds.1 mph45%29.68 "Hg3 mi
10:30 PM82 °FPassing clouds.6 mph51%29.68 "Hg3 mi
10:00 PM84 °FPassing clouds.1 mph43%29.68 "Hg2 mi
9:30 PM88 °FPassing clouds.6 mph33%29.65 "Hg3 mi
9:00 PM88 °FPassing clouds.6 mph35%29.65 "Hg2 mi
8:30 PM90 °FPassing clouds.3 mph36%29.65 "Hg2 mi
8:00 PM90 °FPassing clouds.3 mph36%29.65 "Hg2 mi
7:30 PM90 °FScattered clouds.3 mph38%29.65 "Hg1 mi
7:00 PM91 °FScattered clouds.3 mph32%29.65 "Hg1 mi
6:30 PM97 °FScattered clouds.8 mph22%29.65 "Hg2 mi
6:00 PM97 °FScattered clouds.10 mph23%29.65 "Hg2 mi
5:30 PM97 °FScattered clouds.10 mph28%29.65 "Hg2 mi
5:00 PM99 °FScattered clouds.10 mph29%29.62 "Hg2 mi
4:30 PM100 °FClear.13 mph27%29.62 "Hg5 mi
4:00 PM100 °FClear.13 mph25%29.65 "HgN/A
3:30 PM102 °FClear.10 mph23%29.65 "HgN/A
3:00 PM102 °FClear.8 mph21%29.65 "HgN/A
2:30 PM102 °FClear.8 mph24%29.65 "HgN/A
2:00 PM102 °FClear.8 mph24%29.65 "HgN/A
1:30 PM104 °FClear.8 mph19%29.65 "HgN/A
1:00 PM106 °FClear.6 mph14%29.65 "HgN/A
12:30 PM104 °FClear.3 mph16%29.65 "HgN/A
12:00 PM102 °FClear.3 mph16%29.68 "HgN/A
11:30 AM100 °FClear.1 mph17%29.68 "HgN/A
11:00 AM100 °FClear.3 mph17%29.68 "HgN/A
10:30 AM99 °FClear.1 mph25%29.68 "HgN/A
10:00 AM97 °FClear.1 mph30%29.68 "HgN/A
9:30 AM93 °FClear.3 mph34%29.68 "HgN/A
9:00 AM91 °FClear.1 mph26%29.68 "HgN/A
8:30 AM90 °FClear.3 mph24%29.68 "HgN/A
8:00 AM86 °FClear.3 mph33%29.68 "Hg4 mi
7:30 AM81 °FClear.1 mph45%29.68 "HgN/A
7:00 AM81 °FClear.No wind42%29.68 "HgN/A
6:30 AM77 °FClear.3 mph44%29.68 "HgN/A
6:00 AM72 °FClear.3 mph53%29.68 "HgN/A
5:30 AM77 °FClear.1 mph42%29.68 "HgN/A
5:00 AM75 °FClear.1 mph47%29.65 "HgN/A
4:30 AM75 °FClear.1 mph47%29.65 "HgN/A
4:00 AM77 °FClear.1 mph44%29.65 "HgN/A
Weather by CustomWeather, © 2016

See weather overviewHow to use our weather pages